Location: Sihaung
(22.8641°N, 94.0549°E)
Time: 14:05:23
(UTC+00:00)

Centaur D-1A AC-31 - Pass Details

Date: 03 March 2021
Orbit: 497 x 36443 km, 27.5° (Epoch: 10 April)

Event Time Altitude Azimuth Distance (km) Brightness Sun altitude
Rises 13:46:13 0° 190° (S) 3,627 5.1 -28.0°
Reaches altitude 10° 13:48:27 10° 174° (S) 3,299 4.6 -28.5°
Enters shadow 13:50:25 18° 157° (SSE) 3,304 4.5 -29.0°
Exits shadow 14:28:12 11° 73° (ENE) 14,642 7.5 -37.6°
Maximum altitude 21:53:10 35° 99° (E) 30,271 9.9 -30.7°
Drops below altitude 10° 23:35:15 10° 113° (ESE) 16,014 9.6 -7.2°
Sets 23:45:53 0° 114° (ESE) 14,472 9.7 -4.7°
